Regional Weather Roundup
Issued by NWS

Home | Current Version | Previous Version | Text Only | Print | Product List | Glossary On
Versions: 1 2 3 4 5 6 7 8 9 10 11 12 13 14 15 16 17 18 19 20 21 22 23 24 25 26 27 28 29 30 31 32 33 34 35 36 37 38 39 40 41 42 43 44 45 46 47 48 49 50
000
ASCA44 KEWX 291720
RWRMX

LATIN AMERICA AND CARIBBEAN REGIONAL WEATHER ROUNDUP
NATIONAL WEATHER SERVICE AUSTIN/SAN ANTONIO TX
1100 AM CST THU JAN 29 2015

NOTE: "FAIR" INDICATED FEW OR NO CLOUDS BELOW 12,000 FEET WITH NO
SIGNIFICANT WEATHER AND/OR OBSTRUCTIONS TO VISIBILITY.

BAJA CALIFORNIA

CITY           SKY/WX    TMP DP  RH WIND       PRES   REMARKS
LORETO         CLOUDY    72  57  60 NW7       30.01S
LA PAZ         CLOUDY    72  59  64 N9        30.03
MEXICALI       CLOUDY    61  52  72 E3        30.09
S.J. DEL CABO  CLOUDY    77  52  41 NW14      29.98R
TIJUANA        CLOUDY    66  46  48 E5        30.08R

NORTHWESTERN MEXICO

CITY           SKY/WX    TMP DP  RH WIND       PRES   REMARKS
CULIACAN       PTSUNNY   77  61  57 CALM      29.93
DURANGO        PTSUNNY   61  39  44 CALM      30.35R
GUAYMAS        CLOUDY    70  63  78 SW12      29.98
HERMOSILLO     CLOUDY    72  59  64 SE6       30.04
CD. JUAREZ     CLOUDY    52  37  58 NE7       30.24
LOS MOCHIS     CLOUDY    70  61  73 NW18      29.97R
OBREGON        CLOUDY    64  59  82 SW12      29.96

NORTHEASTERN MEXICO

CITY           SKY/WX    TMP DP  RH WIND       PRES   REMARKS
CHIHUAHUA      CLOUDY    61  37  41 CALM      30.31
MATAMOROS      PTSUNNY   73  64  73 SE7       30.24
MONCLOVA       MOSUNNY   70  46  43 CALM      30.17S
MONTERREY      MOSUNNY   68  50  52 NW3       30.18R
NUEVO LAREDO   MOSUNNY   70  57  64 SE6       30.20
PIEDRAS NEGRAS MOSUNNY   64  52  63 CALM      30.22R
REYNOSA        MOSUNNY   66  57  72 S7        30.22
SALTILLO       MOSUNNY   68  48  49 CALM      30.30R
TORREON        PTSUNNY   64  41  42 CALM      30.25R
CD. VICTORIA   SUNNY     72  52  49 E8        30.20

WESTERN MEXICO

CITY           SKY/WX    TMP DP  RH WIND       PRES   REMARKS
AGUASCALIENTES PTSUNNY   66  30  26 NE8       30.34
COLIMA           N/A    N/A N/A N/A MISG        N/A
DEL BAJIO      PTSUNNY   66  36  32 CALM      30.38S
GUADALAJARA    PTSUNNY   72  37  28 CALM      30.26
MANZANILLO     MOSUNNY   86  75  70 S7        29.90R HX  95
MAZATLAN       CLOUDY    73  68  83 E7        29.91R
P. VALLARTA    PTSUNNY   81  72  74 SW5       29.92S
URUAPAN        SUNNY     73  48  40 CALM      30.21R
ZACATECAS        N/A    N/A N/A N/A MISG        N/A

CENTRAL MEXICO

CITY           SKY/WX    TMP DP  RH WIND       PRES   REMARKS
CUERNAVACA     MOSUNNY   72  34  25 S3        30.21F
MEXICO CITY    SUNNY     61  32  33 N5        30.40F
MORELIA        SUNNY     64  37  36 CALM      30.30
POZA RICA      SUNNY     72  59  64 E7        30.23R
PUEBLA         SUNNY     68  25  19 N12       30.36F
QUERETARO      MOSUNNY   66  34  30 E3        30.37S
S. LUIS POTOSI MOSUNNY   63  32  31 CALM      30.34S
TAMPICO        SUNNY     70  59  68 S6        30.20F
TOLUCA         MOSUNNY   63  28  27 NE6       30.44S

SOUTHERN MEXICO

CITY           SKY/WX    TMP DP  RH WIND       PRES   REMARKS
ACAPULCO       MOSUNNY   84  72  65 SW3       29.93F
B. DE HUATULCO MOSUNNY   81  70  69 W9        29.99
OAXACA         SUNNY     66  21  18 N14       30.27F
P. ESCONDIDO   SUNNY     81  72  74 CALM      30.06S
VERACRUZ       MOSUNNY   73  57  56 SE5       30.20S
ZIHUATANEJO    SUNNY     86  72  62 SW12      29.93R HX  92

YUCATAN PENINSULA

CITY           SKY/WX    TMP DP  RH WIND       PRES   REMARKS
CAMPECHE       SUNNY     77  59  53 E18       30.14F
CANCUN         PTSUNNY   75  61  60 E10       30.20S
CHETUMAL       SUNNY     79  63  57 N8        30.13F
CD. DEL CARMEN SUNNY     73  63  68 SE9       30.16F
COZUMEL        MOSUNNY   72  61  68 NE15      30.19S
MERIDA         MOSUNNY   79  55  44 E5        30.19F
MINATITLAN     CLOUDY    72  68  88 CALM      30.13F
TAPACHULA      SUNNY     84  68  58 CALM      29.94F
TUX. GUTIERREZ MOSUNNY   70  50  49 NE7       30.14F
VILLAHERMOSA   MOSUNNY   75  66  73 E8        30.17F

CENTRAL AMERICA

CITY           SKY/WX    TMP DP  RH WIND       PRES   REMARKS
BELIZE CITY    MOSUNNY   79  66  65 NE9       30.13F
MANAGUA          N/A     86  57  37 E16       29.89S

CARIBBEAN

CITY           SKY/WX    TMP DP  RH WIND       PRES   REMARKS
ARUBA          MOSUNNY   88  72  58 E22G33    29.89S HX  94
CURACAO        MOSUNNY   84  72  65 E14       29.92F
KINGSTON       MOSUNNY   84  70  61 SW8       29.94F
NASSAU         MOSUNNY   70  50  49 NE12      30.23F
SAN JUAN       MOSUNNY   84  72  65 NE12      30.01F
SANTO DOMINGO  PTSUNNY   82  72  69 N14       30.00F
ST. KITTS      MOSUNNY   84  68  58 E12       30.00S
ST. MAARTEN    PTSUNNY   84  68  58 SE9       30.01F

$$




USA.gov is the U.S. government's official web portal to all federal, state and local government web resources and services.